Weather in Kamyshlovskiy

Russia / Omsk Oblast     55°06′58″N   72°56′36″E
temp.,
°C
wind,
m/s
gust,
m/s
humid.,
%
clouds,
%
prec.,
mm/h
press.,
hPa
HPBL,
m
8 march, mon
mon800:00+1ssw101898100 2.6 1002864
03:00+1ssw111997100 0.9 1000974
06:000ssw101697100 2.9 1000935
09:00−9wnw71291100 1.6 1002483
12:00−10wnw7108893 1.6 1006533
15:00−8wnw6118562 0.0 1010679
18:00−10wsw5118530 0.0 1014352
21:00−12sw5119095 0.0 1015317
9 march, tue
tue900:00−12sw5128997 0.0 1017379
03:00−14sw6138873 0.0 1016391
06:00−14sw6139079 0.0 1016354
09:00−12sw6129197 0.0 1016408
12:00−10ssw7119098 0.0 1016526
15:00−7ssw71389100 0.0 1015671
18:00−6ssw71385100 0.0 1014633
21:00−8ssw7148484 0.0 1014425
10 march, wed
wed1000:00−8sw6138790 0.0 1013485
03:00−9sw51192100 0.0 1013282
06:00−11sw3695100 0.0 1013132
09:00−10s2296100 0.0 101242
12:00−7se2493100 0.1 1010258
15:00−6e4695100 1.6 1006422
18:00−6e3595100 4.4 1002415
21:00−8nne1196100 0.8 100121
11 march, thu
thu1100:00−9wsw349698 0.9 100269
03:00−9wsw379690 0.1 1002150
06:00−10ssw489595 0.3 1003205
09:00−9wsw71291100 0.3 1005543
12:00−10sw8138899 0.4 1006659
15:00−10sw71283100 0.0 1006957
18:00−10sw61286100 0.1 1006859
21:00−11wsw61193100 0.3 1006775
12 march, fri
fri1200:00−14sw61293100 0.4 1007481
03:00−16w6129489 0.1 1010384
06:00−20w5129689 0.1 1013280
09:00−20w6129298 0.1 1016540
12:00−18w5108757 0.1 1019625
15:00−16wsw5887100 0.0 1021765
18:00−17wsw3693100 0.1 1022143
21:00−21wsw349818 0.0 102446